User: anonymous   Login
Location: Ajisawe
(8.4333°N, 4.3833°E)
Time: 11:51:49
(UTC+00:00)
Language:

Cosmos 2237 Rocket - Orbit

View from above orbital plane
View from above orbital plane
View from above satellite
View from above satellite

Ground track
Ground track

The orbit data is extracted from the following two-line orbital elements,

1 22566U 93016B   20226.87235670 +.00000252 +00000-0 +15483-3 0  9993
2 22566 071.0078 165.2234 0010545 189.8244 170.2674 14.14963355414456
Epoch (UTC): 13 August 2020 20:56:11
Eccentricity: 0.0010545
inclination: 71.0078°
perigee height: 835 km
apogee height: 850 km
right ascension of ascending node: 165.2234°
argument of perigee: 189.8244°
revolutions per day: 14.14963355
mean anomaly at epoch: 170.2674°
orbit number at epoch: 41445

The dashed part of the orbit path shows where the satellite is in the earth's shadow,  

DLR